Hourly Weather Maturín

Today, 5 August, Wednesday

Time Temperature Precipitation Wind Pressure Humidity
00:00 +25°C° 0 mm 1 mps 757 mmHg 92%
01:00 +23°C° 0 mm 0 mps 757 mmHg 93%
02:00 +25°C° 0 mm 1 mps 757 mmHg 91%
03:00 +22°C° 0 mm 0 mps 756 mmHg 92%
04:00 +22°C° 0 mm 0 mps 756 mmHg 93%
05:00 +22°C° 0 mm 0 mps 756 mmHg 93%
06:00 +23°C° 0 mm 0 mps 757 mmHg 90%
07:00 +24°C° 0 mm 0 mps 757 mmHg 87%
08:00 +27°C° 0 mm 1 mps 757 mmHg 83%
09:00 +29°C° 0.2 mm 1 mps 757 mmHg 76%
10:00 +31°C° 0.2 mm 1 mps 757 mmHg 70%
11:00 +32°C° 0.2 mm 2 mps 757 mmHg 63%
12:00 +32°C° 1.2 mm 2 mps 757 mmHg 67%
13:00 +32°C° 1.2 mm 2 mps 756 mmHg 71%
14:00 +31°C° 1.2 mm 2 mps 755 mmHg 75%
15:00 +31°C° 1.2 mm 2 mps 755 mmHg 78%
16:00 +30°C° 1.2 mm 2 mps 754 mmHg 81%
17:00 +30°C° 1.2 mm 2 mps 754 mmHg 84%
18:00 +29°C° 0.7 mm 2 mps 754 mmHg 87%
19:00 +27°C° 0.7 mm 2 mps 755 mmHg 90%
20:00 +26°C° 0.7 mm 2 mps 755 mmHg 93%
21:00 +26°C° 0.3 mm 2 mps 756 mmHg 93%
22:00 +26°C° 0.3 mm 1 mps 756 mmHg 94%
23:00 +25°C° 0.3 mm 1 mps 757 mmHg 94%

Tomorrow, 6 August, Thursday

Time Temperature Precipitation Wind Pressure Humidity
00:00 +25°C° 1.1 mm 1 mps 756 mmHg 95%
01:00 +25°C° 1.1 mm 1 mps 756 mmHg 96%
02:00 +25°C° 1.1 mm 1 mps 755 mmHg 97%
03:00 +25°C° 0.1 mm 1 mps 755 mmHg 97%
04:00 +25°C° 0.1 mm 1 mps 755 mmHg 97%
05:00 +24°C° 0.1 mm 1 mps 755 mmHg 97%
06:00 +25°C° 0.3 mm 1 mps 755 mmHg 95%
07:00 +26°C° 0.3 mm 1 mps 756 mmHg 93%
08:00 +27°C° 0.3 mm 1 mps 756 mmHg 91%
09:00 +29°C° 1.4 mm 1 mps 756 mmHg 87%
10:00 +30°C° 1.4 mm 1 mps 756 mmHg 82%
11:00 +31°C° 1.4 mm 2 mps 756 mmHg 78%
12:00 +31°C° 1.2 mm 1 mps 756 mmHg 77%
13:00 +31°C° 1.2 mm 1 mps 755 mmHg 76%
14:00 +31°C° 1.2 mm 1 mps 755 mmHg 75%
15:00 +31°C° 0.4 mm 1 mps 754 mmHg 76%
16:00 +31°C° 0.4 mm 1 mps 754 mmHg 77%
17:00 +31°C° 0.4 mm 2 mps 753 mmHg 78%
18:00 +29°C° 0.2 mm 2 mps 754 mmHg 82%
19:00 +28°C° 0.2 mm 1 mps 755 mmHg 87%
20:00 +27°C° 0.2 mm 1 mps 756 mmHg 91%
21:00 +26°C° 0.1 mm 1 mps 756 mmHg 91%
22:00 +26°C° 0.1 mm 1 mps 756 mmHg 92%
23:00 +26°C° 0.1 mm 1 mps 757 mmHg 93%

Day after tomorrow, 7 August, Friday

Time Temperature Precipitation Wind Pressure Humidity
00:00 +26°C° 0.2 mm 1 mps 756 mmHg 93%
01:00 +23°C° 0.2 mm 0 mps 756 mmHg 94%
02:00 +23°C° 0.2 mm 0 mps 756 mmHg 95%
03:00 +23°C° 0 mm 0 mps 755 mmHg 95%
04:00 +23°C° 0 mm 0 mps 755 mmHg 95%
05:00 +23°C° 0 mm 0 mps 755 mmHg 96%
06:00 +24°C° 0 mm 0 mps 756 mmHg 92%
07:00 +25°C° 0 mm 0 mps 757 mmHg 89%
08:00 +26°C° 0 mm 0 mps 757 mmHg 86%
09:00 +29°C° 1.4 mm 1 mps 757 mmHg 82%
10:00 +30°C° 1.4 mm 1 mps 757 mmHg 78%
11:00 +31°C° 1.4 mm 2 mps 757 mmHg 74%
12:00 +31°C° 1.2 mm 2 mps 757 mmHg 74%
13:00 +31°C° 1.2 mm 1 mps 756 mmHg 74%
14:00 +32°C° 1.2 mm 1 mps 755 mmHg 74%
15:00 +31°C° 0.9 mm 2 mps 755 mmHg 77%
16:00 +30°C° 0.9 mm 2 mps 755 mmHg 81%
17:00 +30°C° 0.9 mm 2 mps 755 mmHg 85%
18:00 +29°C° 0.1 mm 2 mps 755 mmHg 87%
19:00 +28°C° 0.1 mm 2 mps 756 mmHg 90%
20:00 +26°C° 0.1 mm 1 mps 757 mmHg 93%
21:00 +26°C° 0 mm 1 mps 757 mmHg 94%
22:00 +26°C° 0 mm 1 mps 757 mmHg 94%
23:00 +26°C° 0 mm 1 mps 758 mmHg 95%

8 August, Saturday

Time Temperature Precipitation Wind Pressure Humidity
00:00 +25°C° 0.1 mm 1 mps 757 mmHg 95%
01:00 +25°C° 0.1 mm 1 mps 757 mmHg 96%
02:00 +25°C° 0.1 mm 1 mps 756 mmHg 96%
03:00 +25°C° 0 mm 1 mps 756 mmHg 96%
04:00 +25°C° 0 mm 1 mps 756 mmHg 95%
05:00 +25°C° 0 mm 1 mps 757 mmHg 95%
06:00 +26°C° 0.1 mm 1 mps 757 mmHg 93%
07:00 +26°C° 0.1 mm 1 mps 757 mmHg 92%
08:00 +27°C° 0.1 mm 1 mps 758 mmHg 90%
09:00 +28°C° 1 mm 2 mps 758 mmHg 88%
10:00 +29°C° 1 mm 2 mps 758 mmHg 85%
11:00 +30°C° 1 mm 3 mps 758 mmHg 83%
12:00 +30°C° 0.6 mm 3 mps 757 mmHg 80%
13:00 +30°C° 0.6 mm 3 mps 756 mmHg 78%
14:00 +30°C° 0.6 mm 3 mps 756 mmHg 76%
15:00 +30°C° 0.2 mm 2 mps 755 mmHg 78%
16:00 +30°C° 0.2 mm 2 mps 755 mmHg 80%
17:00 +29°C° 0.2 mm 1 mps 755 mmHg 82%
18:00 +28°C° 0 mm 1 mps 755 mmHg 85%
19:00 +27°C° 0 mm 1 mps 756 mmHg 88%
20:00 +26°C° 0 mm 1 mps 756 mmHg 92%
21:00 +26°C° 0.2 mm 1 mps 757 mmHg 93%
22:00 +23°C° 0.2 mm 0 mps 757 mmHg 94%
23:00 +23°C° 0.2 mm 0 mps 758 mmHg 95%

9 August, Sunday

Time Temperature Precipitation Wind Pressure Humidity
00:00 +23°C° 0.5 mm 0 mps 757 mmHg 95%
01:00 +23°C° 0.5 mm 0 mps 757 mmHg 95%
02:00 +23°C° 0.5 mm 0 mps 756 mmHg 96%
03:00 +23°C° 0.2 mm 0 mps 756 mmHg 96%
04:00 +22°C° 0.2 mm 0 mps 756 mmHg 96%
05:00 +22°C° 0.2 mm 0 mps 756 mmHg 97%
06:00 +23°C° 0 mm 0 mps 756 mmHg 94%
07:00 +24°C° 0 mm 0 mps 757 mmHg 92%
08:00 +25°C° 0 mm 0 mps 757 mmHg 90%
09:00 +27°C° 1.6 mm 0 mps 757 mmHg 85%
10:00 +30°C° 1.6 mm 1 mps 757 mmHg 81%
11:00 +31°C° 1.6 mm 1 mps 757 mmHg 76%
12:00 +31°C° 0.9 mm 2 mps 757 mmHg 77%
13:00 +31°C° 0.9 mm 2 mps 756 mmHg 78%
14:00 +30°C° 0.9 mm 3 mps 755 mmHg 79%
15:00 +30°C° 0.1 mm 2 mps 755 mmHg 79%
16:00 +30°C° 0.1 mm 2 mps 754 mmHg 78%
17:00 +30°C° 0.1 mm 2 mps 754 mmHg 78%
18:00 +29°C° 0.4 mm 2 mps 755 mmHg 82%
19:00 +28°C° 0.4 mm 2 mps 755 mmHg 86%
20:00 +27°C° 0.4 mm 2 mps 755 mmHg 90%
21:00 +26°C° 0.1 mm 2 mps 756 mmHg 91%
22:00 +26°C° 0.1 mm 2 mps 756 mmHg 92%
23:00 +26°C° 0.1 mm 1 mps 756 mmHg 93%

10 August, Monday

Time Temperature Precipitation Wind Pressure Humidity
00:00 +26°C° 0 mm 1 mps 756 mmHg 93%
01:00 +25°C° 0 mm 1 mps 755 mmHg 94%
02:00 +25°C° 0 mm 1 mps 755 mmHg 94%
03:00 +23°C° 0 mm 0 mps 755 mmHg 94%
04:00 +23°C° 0 mm 0 mps 755 mmHg 94%
05:00 +23°C° 0 mm 0 mps 755 mmHg 94%
06:00 +24°C° 0 mm 0 mps 755 mmHg 91%
07:00 +25°C° 0 mm 0 mps 755 mmHg 89%
08:00 +26°C° 0 mm 0 mps 756 mmHg 87%
09:00 +27°C° 0.7 mm 0 mps 756 mmHg 81%
10:00 +31°C° 0.7 mm 1 mps 756 mmHg 74%
11:00 +32°C° 0.7 mm 1 mps 755 mmHg 68%
12:00 +33°C° 0.8 mm 1 mps 755 mmHg 68%
13:00 +33°C° 0.8 mm 1 mps 754 mmHg 68%
14:00 +33°C° 0.8 mm 1 mps 753 mmHg 69%
15:00 +32°C° 1.8 mm 1 mps 753 mmHg 75%
16:00 +31°C° 1.8 mm 1 mps 753 mmHg 82%
17:00 +29°C° 1.8 mm 1 mps 752 mmHg 89%
18:00 +29°C° 1.6 mm 1 mps 753 mmHg 90%
19:00 +28°C° 1.6 mm 1 mps 753 mmHg 91%
20:00 +27°C° 1.6 mm 1 mps 754 mmHg 92%
21:00 +27°C° 0.3 mm 1 mps 754 mmHg 93%
22:00 +26°C° 0.3 mm 1 mps 754 mmHg 93%
23:00 +26°C° 0.3 mm 1 mps 755 mmHg 94%
Show more